JST988 YSSY-YMML

Flight info

Callsign JST988
Flight time N/A
Altitude 38000
Route MARUB7/34R WOL H65 LEECE Q29 ML
Aircraft A320/M-SDE3FGHIRWY/LB1

Departure

Time 2026-05-01 09:49
Airport Sydney Kingsford Smith International Airport (YSSY)

Arrival

Time N/A
Airport Melbourne Airport (YMML)
Time Latitude Longitude Altitude Speed Heading
2026-05-01 09:03 -33.93487 151.17783 31 ft 0 kts 279°
2026-05-01 09:23 -33.93492 151.17826 31 ft 3 kts 270°
2026-05-01 09:24 -33.93482 151.17848 31 ft 2 kts 194°
2026-05-01 09:24 -33.93474 151.17851 30 ft 0 kts 191°
2026-05-01 09:26 -33.93476 151.17850 30 ft 1 kts 191°
2026-05-01 09:26 -33.93477 151.17850 30 ft 0 kts 191°
2026-05-01 09:28 -33.93502 151.17844 29 ft 8 kts 191°
2026-05-01 09:28 -33.93566 151.17829 30 ft 11 kts 190°
2026-05-01 09:28 -33.93637 151.17814 30 ft 6 kts 190°
2026-05-01 09:29 -33.93698 151.17797 30 ft 7 kts 189°
2026-05-01 09:29 -33.93770 151.17787 27 ft 14 kts 187°
2026-05-01 09:30 -33.93918 151.17778 21 ft 2 kts 163°
2026-05-01 09:30 -33.93964 151.17796 22 ft 10 kts 162°
2026-05-01 09:30 -33.94129 151.17839 24 ft 11 kts 166°
2026-05-01 09:31 -33.94187 151.17857 24 ft 9 kts 167°
2026-05-01 09:31 -33.94218 151.17865 27 ft 0 kts 167°
2026-05-01 09:33 -33.94234 151.17870 25 ft 9 kts 168°
2026-05-01 09:33 -33.94316 151.17889 25 ft 13 kts 168°
2026-05-01 09:33 -33.94516 151.17885 24 ft 15 kts 188°
2026-05-01 09:34 -33.94602 151.17904 25 ft 13 kts 166°
2026-05-01 09:34 -33.94695 151.17927 24 ft 15 kts 168°
2026-05-01 09:34 -33.94904 151.17982 22 ft 14 kts 166°
2026-05-01 09:35 -33.94994 151.18006 24 ft 13 kts 169°
2026-05-01 09:35 -33.95095 151.18149 25 ft 17 kts 77°
2026-05-01 09:35 -33.95069 151.18291 25 ft 16 kts 79°
2026-05-01 09:36 -33.95053 151.18381 25 ft 0 kts 78°
2026-05-01 09:37 -33.95044 151.18446 27 ft 12 kts 86°
2026-05-01 09:38 -33.95105 151.18537 31 ft 15 kts 149°
2026-05-01 09:38 -33.95200 151.18634 23 ft 19 kts 137°
2026-05-01 09:38 -33.95297 151.18711 26 ft 15 kts 159°
2026-05-01 09:39 -33.95554 151.18785 22 ft 22 kts 167°
2026-05-01 09:39 -33.95704 151.18823 24 ft 22 kts 168°
2026-05-01 09:39 -33.95848 151.18862 25 ft 22 kts 167°
2026-05-01 09:40 -33.95990 151.18898 28 ft 21 kts 167°
2026-05-01 09:40 -33.96268 151.18969 27 ft 21 kts 168°
2026-05-01 09:40 -33.96413 151.19006 23 ft 19 kts 167°
2026-05-01 09:41 -33.96521 151.19035 18 ft 17 kts 168°
2026-05-01 09:41 -33.96704 151.19078 18 ft 13 kts 175°
2026-05-01 09:41 -33.96803 151.19068 18 ft 15 kts 179°
2026-05-01 09:42 -33.96914 151.19093 18 ft 17 kts 167°
2026-05-01 09:42 -33.97024 151.19121 19 ft 15 kts 168°
2026-05-01 09:42 -33.97122 151.19162 20 ft 4 kts 130°
2026-05-01 09:43 -33.97126 151.19170 20 ft 0 kts 122°
2026-05-01 09:45 -33.97128 151.19174 20 ft 2 kts 119°
2026-05-01 09:45 -33.97129 151.19229 20 ft 5 kts 79°
2026-05-01 09:45 -33.97125 151.19251 21 ft 0 kts 77°
2026-05-01 09:46 -33.97122 151.19263 21 ft 5 kts 77°
2026-05-01 09:46 -33.97113 151.19309 21 ft 6 kts 76°
2026-05-01 09:47 -33.97097 151.19363 22 ft 8 kts 52°
2026-05-01 09:47 -33.97049 151.19373 24 ft 0 kts 348°
2026-05-01 09:48 -33.97044 151.19372 21 ft 4 kts 348°
2026-05-01 09:48 -33.96842 151.19321 19 ft 65 kts 348°
2026-05-01 09:48 -33.96186 151.19151 27 ft 124 kts 348°
2026-05-01 09:49 -33.95192 151.18895 52 ft 165 kts 348°
2026-05-01 09:49 -33.94096 151.18623 700 ft 159 kts 358°
2026-05-01 09:49 -33.93031 151.18863 1334 ft 158 kts 32°
2026-05-01 09:49 -33.92218 151.19754 1944 ft 162 kts 56°
2026-05-01 09:50 -33.91856 151.21093 2410 ft 178 kts 90°
2026-05-01 09:50 -33.92209 151.22539 3051 ft 186 kts 121°
2026-05-01 09:50 -33.93098 151.23688 3750 ft 190 kts 133°
2026-05-01 09:50 -33.93924 151.24918 4367 ft 189 kts 109°
2026-05-01 09:51 -33.94181 151.26472 4892 ft 196 kts 85°
2026-05-01 09:51 -33.94010 151.28176 5287 ft 216 kts 79°
2026-05-01 09:51 -33.93820 151.30076 5683 ft 241 kts 83°
2026-05-01 09:51 -33.93684 151.32187 6196 ft 262 kts 84°
2026-05-01 09:52 -33.93581 151.34408 7011 ft 269 kts 85°
2026-05-01 09:52 -33.93499 151.36683 7880 ft 274 kts 87°
2026-05-01 09:52 -33.93795 151.38970 8758 ft 283 kts 109°
2026-05-01 09:52 -33.94893 151.40969 9650 ft 294 kts 135°
2026-05-01 09:53 -33.96669 151.42217 10495 ft 304 kts 162°
2026-05-01 09:53 -33.98846 151.42386 10900 ft 328 kts 192°
2026-05-01 09:53 -34.00921 151.41189 11536 ft 337 kts 219°
2026-05-01 09:53 -34.02703 151.39332 12204 ft 340 kts 223°
2026-05-01 09:54 -34.04436 151.37366 12926 ft 343 kts 224°
2026-05-01 09:54 -34.06156 151.35352 13643 ft 346 kts 225°
2026-05-01 09:54 -34.07893 151.33317 14336 ft 350 kts 224°
2026-05-01 09:54 -34.09660 151.31275 14956 ft 353 kts 224°
2026-05-01 09:55 -34.11449 151.29233 15577 ft 356 kts 223°
2026-05-01 09:55 -34.13269 151.27181 16188 ft 359 kts 223°
2026-05-01 09:55 -34.15106 151.25120 16785 ft 362 kts 223°
2026-05-01 09:55 -34.16960 151.23049 17398 ft 365 kts 223°
2026-05-01 09:56 -34.18829 151.20959 18017 ft 368 kts 223°
2026-05-01 09:56 -34.20712 151.18848 18621 ft 371 kts 223°
2026-05-01 09:56 -34.22609 151.16714 19165 ft 374 kts 223°
2026-05-01 09:56 -34.24512 151.14564 19717 ft 376 kts 224°
2026-05-01 09:57 -34.26430 151.12395 20274 ft 379 kts 224°
2026-05-01 09:57 -34.28359 151.10215 20831 ft 381 kts 224°
2026-05-01 09:57 -34.30302 151.08022 21370 ft 383 kts 224°
2026-05-01 09:57 -34.32258 151.05815 21896 ft 385 kts 224°
2026-05-01 09:58 -34.34220 151.03599 22424 ft 387 kts 224°
2026-05-01 09:58 -34.36191 151.01366 22914 ft 390 kts 224°
2026-05-01 09:58 -34.38177 150.99115 23423 ft 392 kts 224°
2026-05-01 09:58 -34.40172 150.96857 23924 ft 394 kts 224°
2026-05-01 09:59 -34.42182 150.94581 24340 ft 396 kts 224°
2026-05-01 09:59 -34.44200 150.92291 24750 ft 399 kts 224°
2026-05-01 09:59 -34.46231 150.89982 25162 ft 401 kts 224°
2026-05-01 09:59 -34.48271 150.87659 25559 ft 404 kts 225°
2026-05-01 10:00 -34.50324 150.85320 25956 ft 406 kts 225°
2026-05-01 10:00 -34.52387 150.82969 26351 ft 409 kts 225°
2026-05-01 10:00 -34.54467 150.80602 26735 ft 411 kts 225°
2026-05-01 10:00 -34.56414 150.78065 27115 ft 412 kts 234°
2026-05-01 10:01 -34.58119 150.75268 27687 ft 406 kts 236°
2026-05-01 10:01 -34.59744 150.72577 28903 ft 385 kts 236°
2026-05-01 10:01 -34.61286 150.70022 30142 ft 364 kts 236°
2026-05-01 10:01 -34.62738 150.67620 31236 ft 342 kts 236°
2026-05-01 10:02 -34.64114 150.65342 32005 ft 329 kts 237°
2026-05-01 10:02 -34.65460 150.63115 32446 ft 325 kts 237°
2026-05-01 10:02 -34.66795 150.60893 32750 ft 325 kts 237°
2026-05-01 10:02 -34.68127 150.58668 33014 ft 326 kts 237°
2026-05-01 10:03 -34.69464 150.56435 33275 ft 327 kts 237°
2026-05-01 10:03 -34.70810 150.54186 33445 ft 331 kts 237°
2026-05-01 10:03 -34.72177 150.51906 33571 ft 336 kts 237°
2026-05-01 10:03 -34.73562 150.49596 33721 ft 341 kts 237°
2026-05-01 10:04 -34.74946 150.47293 34134 ft 335 kts 237°
2026-05-01 10:04 -34.75858 150.45774 34356 ft 334 kts 237°
2026-05-01 10:04 -34.77227 150.43489 34599 ft 334 kts 237°
2026-05-01 10:04 -34.78593 150.41205 34801 ft 334 kts 237°
2026-05-01 10:05 -34.79962 150.38912 34975 ft 335 kts 237°
2026-05-01 10:05 -34.81336 150.36614 35164 ft 336 kts 237°
2026-05-01 10:05 -34.82712 150.34309 35325 ft 339 kts 237°
2026-05-01 10:05 -34.84099 150.31978 35450 ft 341 kts 237°
2026-05-01 10:06 -34.85498 150.29620 35568 ft 345 kts 237°
2026-05-01 10:06 -34.86909 150.27248 35695 ft 348 kts 236°
2026-05-01 10:06 -34.88336 150.24849 35817 ft 351 kts 236°
2026-05-01 10:06 -34.89776 150.22427 35949 ft 354 kts 236°
2026-05-01 10:07 -34.92723 150.17470 35978 ft 368 kts 236°
2026-05-01 10:07 -34.95754 150.12347 36188 ft 377 kts 236°
2026-05-01 10:08 -34.98975 150.07256 36502 ft 384 kts 224°
2026-05-01 10:08 -35.01200 150.05401 36490 ft 397 kts 205°
2026-05-01 10:08 -35.03889 150.04404 36366 ft 410 kts 194°
2026-05-01 10:09 -35.06712 150.03731 36401 ft 417 kts 193°
2026-05-01 10:09 -35.12528 150.02405 36400 ft 433 kts 193°
2026-05-01 10:10 -35.18553 150.01025 36397 ft 448 kts 193°
2026-05-01 10:10 -35.27603 149.98943 36395 ft 436 kts 193°
2026-05-01 10:11 -35.30505 149.97935 36394 ft 431 kts 207°
2026-05-01 10:11 -35.33027 149.96095 36396 ft 426 kts 222°
2026-05-01 10:11 -35.35048 149.93485 36396 ft 422 kts 238°
2026-05-01 10:11 -35.36469 149.90311 36399 ft 420 kts 246°
2026-05-01 10:12 -35.38949 149.83826 36399 ft 420 kts 246°
2026-05-01 10:13 -35.42670 149.74093 36398 ft 420 kts 246°
2026-05-01 10:13 -35.45149 149.67607 36402 ft 420 kts 246°
2026-05-01 10:14 -35.48860 149.57885 36406 ft 419 kts 246°
2026-05-01 10:14 -35.51328 149.51409 36402 ft 419 kts 246°
2026-05-01 10:15 -35.53784 149.44923 36401 ft 419 kts 246°
2026-05-01 10:15 -35.56235 149.38439 36400 ft 419 kts 246°
2026-05-01 10:16 -35.58690 149.31952 36400 ft 418 kts 246°
2026-05-01 10:17 -35.62359 149.22220 36402 ft 418 kts 246°
2026-05-01 10:17 -35.66024 149.12483 36404 ft 418 kts 246°
2026-05-01 10:18 -35.69669 149.02740 36404 ft 418 kts 247°
2026-05-01 10:19 -35.72100 148.96237 36406 ft 418 kts 247°
2026-05-01 10:19 -35.74522 148.89747 36405 ft 417 kts 247°
2026-05-01 10:20 -35.78153 148.79994 36406 ft 418 kts 247°
2026-05-01 10:20 -35.80566 148.73491 36407 ft 418 kts 247°
2026-05-01 10:21 -35.84185 148.63727 36405 ft 417 kts 247°
2026-05-01 10:22 -35.87807 148.53971 36399 ft 418 kts 244°
2026-05-01 10:23 -35.92680 148.45024 36395 ft 419 kts 237°
2026-05-01 10:23 -35.97661 148.36153 36386 ft 419 kts 237°
2026-05-01 10:24 -36.04304 148.24315 36376 ft 419 kts 237°
2026-05-01 10:25 -36.11254 148.12745 36369 ft 423 kts 224°
2026-05-01 10:26 -36.16268 148.08893 36367 ft 431 kts 203°
2026-05-01 10:27 -36.27573 148.03835 36355 ft 432 kts 203°
2026-05-01 10:28 -36.36057 148.00005 36357 ft 433 kts 203°
2026-05-01 10:28 -36.44550 147.96166 36360 ft 433 kts 203°
2026-05-01 10:29 -36.53050 147.92306 36361 ft 434 kts 203°
2026-05-01 10:30 -36.64401 147.87147 36371 ft 435 kts 203°
2026-05-01 10:31 -36.75656 147.81721 36360 ft 429 kts 216°
2026-05-01 10:32 -36.79593 147.76374 36368 ft 417 kts 247°
2026-05-01 10:32 -36.80556 147.72981 36368 ft 413 kts 261°
2026-05-01 10:32 -36.80334 147.65927 36362 ft 409 kts 282°
2026-05-01 10:33 -36.79233 147.58961 36371 ft 410 kts 282°
2026-05-01 10:33 -36.78565 147.51930 36364 ft 411 kts 264°
2026-05-01 10:34 -36.79218 147.48446 36366 ft 414 kts 255°
2026-05-01 10:34 -36.80967 147.41583 36362 ft 415 kts 255°
2026-05-01 10:35 -36.83621 147.31296 36365 ft 415 kts 255°
2026-05-01 10:35 -36.85376 147.24427 35996 ft 415 kts 255°
2026-05-01 10:36 -36.87168 147.17334 35509 ft 443 kts 255°
2026-05-01 10:36 -36.88104 147.13629 35266 ft 450 kts 255°
2026-05-01 10:36 -36.89051 147.09901 35026 ft 451 kts 255°
2026-05-01 10:37 -36.90000 147.06162 34781 ft 452 kts 255°
2026-05-01 10:37 -36.91891 146.98678 34206 ft 451 kts 255°
2026-05-01 10:37 -36.92831 146.94956 33686 ft 447 kts 255°
2026-05-01 10:38 -36.93771 146.91235 33195 ft 450 kts 255°
2026-05-01 10:38 -36.94699 146.87548 32711 ft 452 kts 255°
2026-05-01 10:38 -36.95649 146.83740 32212 ft 453 kts 255°
2026-05-01 10:38 -36.96573 146.80015 31728 ft 455 kts 255°
2026-05-01 10:39 -36.97520 146.76207 31242 ft 451 kts 255°
2026-05-01 10:39 -36.98449 146.72476 30761 ft 448 kts 255°
2026-05-01 10:39 -36.99373 146.68773 30285 ft 445 kts 255°
2026-05-01 10:39 -37.00293 146.65082 29815 ft 442 kts 255°
2026-05-01 10:40 -37.01200 146.61424 29363 ft 440 kts 255°
2026-05-01 10:40 -37.02104 146.57774 28928 ft 437 kts 255°
2026-05-01 10:40 -37.03002 146.54150 28494 ft 435 kts 255°
2026-05-01 10:40 -37.03882 146.50593 28064 ft 432 kts 256°
2026-05-01 10:41 -37.04768 146.47008 27632 ft 430 kts 256°
2026-05-01 10:41 -37.05660 146.43401 27171 ft 427 kts 256°
2026-05-01 10:41 -37.07407 146.36349 26253 ft 422 kts 253°
2026-05-01 10:42 -37.08673 146.33035 25785 ft 424 kts 241°
2026-05-01 10:42 -37.09736 146.31003 25571 ft 418 kts 240°
2026-05-01 10:42 -37.11319 146.28026 25390 ft 401 kts 240°
2026-05-01 10:42 -37.12847 146.25161 24807 ft 391 kts 240°
2026-05-01 10:43 -37.14344 146.22345 24135 ft 388 kts 240°
2026-05-01 10:43 -37.15828 146.19544 23817 ft 383 kts 240°
2026-05-01 10:43 -37.17295 146.16767 23298 ft 381 kts 240°
2026-05-01 10:43 -37.18747 146.14008 22715 ft 375 kts 240°
2026-05-01 10:44 -37.20165 146.11311 22205 ft 366 kts 240°
2026-05-01 10:44 -37.21562 146.08653 21769 ft 364 kts 240°
2026-05-01 10:44 -37.22947 146.06014 21334 ft 361 kts 240°
2026-05-01 10:44 -37.24326 146.03390 20897 ft 359 kts 240°
2026-05-01 10:45 -37.25698 146.00782 20469 ft 357 kts 240°
2026-05-01 10:45 -37.27066 145.98186 20042 ft 355 kts 240°
2026-05-01 10:45 -37.28424 145.95606 19619 ft 353 kts 240°
2026-05-01 10:45 -37.29772 145.93037 19197 ft 351 kts 240°
2026-05-01 10:46 -37.31100 145.90496 18788 ft 349 kts 240°
2026-05-01 10:46 -37.32429 145.87955 18351 ft 347 kts 240°
2026-05-01 10:46 -37.33753 145.85429 17930 ft 345 kts 240°
2026-05-01 10:46 -37.35065 145.82929 17520 ft 342 kts 240°
2026-05-01 10:47 -37.36366 145.80448 17124 ft 339 kts 240°
2026-05-01 10:47 -37.37660 145.77977 16725 ft 337 kts 240°
2026-05-01 10:47 -37.38943 145.75524 16340 ft 335 kts 240°
2026-05-01 10:47 -37.40218 145.73085 15951 ft 333 kts 240°
2026-05-01 10:48 -37.41488 145.70655 15560 ft 331 kts 240°
2026-05-01 10:48 -37.42750 145.68238 15179 ft 329 kts 240°
2026-05-01 10:48 -37.44005 145.65835 14797 ft 328 kts 239°
2026-05-01 10:48 -37.45256 145.63443 14414 ft 326 kts 239°
2026-05-01 10:49 -37.46501 145.61071 14031 ft 325 kts 239°
2026-05-01 10:49 -37.47744 145.58704 13626 ft 323 kts 239°
2026-05-01 10:49 -37.48978 145.56351 13249 ft 321 kts 239°
2026-05-01 10:49 -37.50202 145.54016 12878 ft 319 kts 239°
2026-05-01 10:50 -37.51421 145.51694 12501 ft 316 kts 239°
2026-05-01 10:50 -37.52631 145.49387 12129 ft 315 kts 239°
2026-05-01 10:50 -37.53834 145.47088 11761 ft 314 kts 239°
2026-05-01 10:50 -37.55034 145.44788 11221 ft 317 kts 240°
2026-05-01 10:51 -37.56237 145.42482 10789 ft 310 kts 239°
2026-05-01 10:51 -37.57399 145.40264 10425 ft 297 kts 240°
2026-05-01 10:51 -37.58514 145.38137 10081 ft 287 kts 240°
2026-05-01 10:51 -37.59608 145.36038 9717 ft 286 kts 240°
2026-05-01 10:52 -37.60696 145.33946 9374 ft 284 kts 240°
2026-05-01 10:52 -37.61763 145.31892 9070 ft 283 kts 240°
2026-05-01 10:52 -37.62840 145.29820 9007 ft 283 kts 240°
2026-05-01 10:52 -37.63924 145.27736 9010 ft 284 kts 240°
2026-05-01 10:53 -37.65004 145.25662 8909 ft 272 kts 240°
2026-05-01 10:53 -37.66017 145.23721 8495 ft 266 kts 240°
2026-05-01 10:53 -37.67027 145.21783 8019 ft 262 kts 240°
2026-05-01 10:53 -37.68031 145.19856 7630 ft 256 kts 240°
2026-05-01 10:54 -37.68994 145.18004 7281 ft 249 kts 240°
2026-05-01 10:54 -37.69936 145.16198 6950 ft 243 kts 241°
2026-05-01 10:54 -37.70850 145.14441 6617 ft 236 kts 241°
2026-05-01 10:54 -37.71737 145.12732 6283 ft 229 kts 242°
2026-05-01 10:55 -37.72454 145.11005 5958 ft 219 kts 246°
2026-05-01 10:55 -37.73468 145.09616 5630 ft 221 kts 218°
2026-05-01 10:55 -37.74795 145.08625 5309 ft 224 kts 213°
2026-05-01 10:55 -37.76178 145.07700 5022 ft 224 kts 212°
2026-05-01 10:56 -37.77562 145.06787 4726 ft 225 kts 212°
2026-05-01 10:56 -37.78955 145.05871 4419 ft 226 kts 212°
2026-05-01 10:56 -37.80356 145.04949 4120 ft 228 kts 212°
2026-05-01 10:56 -37.81785 145.04002 3821 ft 230 kts 212°
2026-05-01 10:57 -37.83211 145.03068 3518 ft 232 kts 208°
2026-05-01 10:57 -37.84755 145.02437 3221 ft 235 kts 200°
2026-05-01 10:57 -37.86088 145.01401 3019 ft 223 kts 236°
2026-05-01 10:57 -37.86891 144.99740 3007 ft 219 kts 250°
2026-05-01 10:58 -37.87492 144.98009 2998 ft 215 kts 261°
2026-05-01 10:58 -37.87470 144.96223 3002 ft 200 kts 294°
2026-05-01 10:58 -37.86941 144.94583 3010 ft 198 kts 301°
2026-05-01 10:58 -37.86340 144.93014 3002 ft 198 kts 302°
2026-05-01 10:59 -37.85730 144.91457 3003 ft 198 kts 302°
2026-05-01 10:59 -37.85127 144.89920 3016 ft 197 kts 302°
2026-05-01 10:59 -37.84525 144.88402 3014 ft 185 kts 305°
2026-05-01 10:59 -37.83685 144.87269 2999 ft 173 kts 333°
2026-05-01 11:00 -37.83317 144.87056 3000 ft 170 kts 343°
2026-05-01 11:00 -37.82938 144.86904 2985 ft 171 kts 345°
2026-05-01 11:00 -37.82178 144.86668 2895 ft 169 kts 349°
2026-05-01 11:00 -37.81787 144.86570 2851 ft 170 kts 351°